{"data":{"norad_id":59489,"epoch":"2026-05-25T00:57:23.444352Z","epoch_age_seconds":67506,"freshness":"FRESH","line1":"1 59489U 24071F   26145.03985468 -.00000785  00000+0 -18986-4 0  9997","line2":"2 59489  43.0051 268.4466 0001766 280.2523  79.8130 15.27572642119884","mean_motion":15.27572642,"eccentricity":0.0001766,"inclination_deg":43.0051,"raan_deg":268.4466,"arg_perigee_deg":280.2523,"mean_anomaly_deg":79.813,"bstar":-1.8986e-5,"rev_number":11988,"period_min":94.267202776992,"perigee_km":481.8594392716,"apogee_km":484.28281798263,"semimajor_km":6861.2081286271,"source":"CELESTRAK","updated_at":"2026-05-25T13:38:18.953496Z"}}